SCOUT A DEB, 2226

Orbit data source: Space-Track

SCOUT A DEB, 2226 is space debris in LEO originally from a launch on Wed, 22 Dec 1965 UTC launched from the Air Force Western Test Range (AFWTR). Debris objects in space refer to the collection of defunct objects orbiting the Earth. Examples of debris include non-operational satellites, rocket bodies, and fragments generated from explosions, collisions, or faulty payload assembly.

Loading next visibility...
Identifier
2226, 1965-109D
Orbit
LEO
Country
Flag of USUS
Related business
Manufacturer
Unknown
Mission
Spacecraft
Bus & Motor
Unknown
Mass
Unknown
Launch date (UTC)
1965-12-22 (60 years ago)
Launch vehicle
Unknown
Launch site
Air Force Western Test Range (AFWTR)
Object type
Payload
Rocket body
Debris
Shape & HBR
Unknown shape, 0.1 m
Radar Cross Section
Small (<0.1 m²)

Expand to show TLE details & history
Last TLE update: 6 hours ago

TLE from 6 hours ago
0 SCOUT A DEB
1 02226U 65109D   26132.93065546  .00000191  00000-0  22457-3 0  9999
2 02226  89.0516 310.2268 0248622 145.0836 216.6911 13.51276826948925
Epoch: 2026-05-12T22:20Z
TLE epoch observation values (Epoch: 2026-05-12T22:20:08.631Z)
Latitude
-0.00003°
Longitude
104.49287°
Altitude
1,220.587 km
Speed
7.171 km/s
True Right ascension
20h 40m 54s
True Declination
0° 00' 00"
Sunlit
Object was in daylight at epoch
Visualization orbit readout
Latitude
Unknown
Longitude
Unknown
Altitude
Unknown
Speed
Unknown
Apparent Right ascension
Unknown
Apparent Declination
Unknown
Sunlit
N/A
Visualization observer readout
Local Sidereal Time
13:02:01
Azimuth
Unknown
Elevation
Unknown
Doppler factor
Unknown
Orbital elements
Apogee altitude
1,249.655 km
Perigee altitude
879.569 km
Semi-major axis
7,442.749 km
Eccentricity
0.02486
Inclination
89.0516°
RAAN
310.2268°
Arg. of periapsis
145.0836°
True anomaly
215.03048°
Mean anomaly
216.6911°
Eccentric anomaly
215.85669°
Mean motion
3.38021 °/min
Orbital period
106.5 mins
BSTAR
0.00022457
Loading maneuver chart data...
Computing Atmospheric mass density...
Loading historical data...
Loading historical data...
Loading historical data...
Loading historical data...
Loading historical data...
Loading historical data...
Loading historical data...

Documentation

Showing up to 5 results
|